Orbital Elements at Epoch 2459000.5 (2020-May-31.0) TDB
Reference: JPL 11 (heliocentric ecliptic J2000)
Element | Value | Uncertainty (1-sigma) | Units |
e | .09822688115916765 | 1.389e-07 | |
a | 2.975302409821412 | 4.3801e-08 | au |
q | 2.683047733599299 | 4.1384e-07 | au |
i | 8.386545624957879 | 9.5244e-06 | deg |
node | 220.4775654288513 | 6.6286e-05 | deg |
peri | 234.6679809431192 | 0.00014993 | deg |
M | 250.3127376008736 | 0.00012738 | deg |
tp | 2459571.648176431804 (2021-Dec-23.14817643) | 0.0006679 | TDB |
period | 1874.541665259821 5.13 | 4.1394e-05 1.133e-07 | d yr |
n | .1920469449528625 | 4.2408e-09 | deg/d |
Q | 3.267557086043525 | 4.8103e-08 | au |
|
| | Orbit Determination Parameters
Additional Information
|